Location: Six Mile Lake
(44.9000°N, 79.7170°W)
Time: 05:33:25
(UTC-04:00)

EO-79 - Pass Details

Date: 06 July 2022
Orbit: 588 x 603 km, 98.0° (Epoch: 14 August)

Event Time Altitude Azimuth Distance (km) Brightness Sun altitude
Rises 04:13:35 0° 358° (N) 2,860 ? -12.1°
Reaches altitude 10° 04:16:14 10° 341° (NNW) 1,954 ? -11.8°
Maximum altitude 04:19:15 19° 296° (WNW) 1,438 ? -11.5°
Enters shadow 04:21:57 11° 253° (WSW) 1,858 ? -11.2°
